www.pogodaiklimat.ru
ПОГОДА в Ханабаде

Архив погоды в Ханабаде (Андижанская область, Узбекистан)

Время
и дата
03:50 28.05
04:00 28.05
04:10 28.05
04:20 28.05
04:30 28.05
04:40 28.05
04:50 28.05
05:00 28.05
05:30 28.05
05:50 28.05
06:00 28.05
06:10 28.05
06:20 28.05
06:30 28.05
06:40 28.05
06:50 28.05
07:00 28.05
07:10 28.05
07:20 28.05
07:30 28.05
07:40 28.05
07:50 28.05
08:00 28.05
08:10 28.05
08:20 28.05
08:30 28.05
08:40 28.05
08:50 28.05
09:10 28.05
09:20 28.05
09:30 28.05
09:40 28.05
09:50 28.05
10:00 28.05
10:20 28.05
10:30 28.05
10:40 28.05
10:50 28.05
11:10 28.05
11:20 28.05
11:30 28.05
11:40 28.05
11:50 28.05
12:00 28.05
12:10 28.05
12:20 28.05
12:30 28.05
13:00 28.05
13:10 28.05
13:20 28.05
13:30 28.05
13:40 28.05
13:50 28.05
14:00 28.05
14:20 28.05
14:30 28.05
14:40 28.05
14:50 28.05
15:00 28.05
15:10 28.05
15:20 28.05
15:30 28.05
15:40 28.05
15:50 28.05
16:10 28.05
16:20 28.05
16:30 28.05
16:40 28.05
17:00 28.05
17:10 28.05
17:20 28.05
17:40 28.05
17:50 28.05
18:00 28.05
18:10 28.05
18:20 28.05
18:30 28.05
18:40 28.05
18:50 28.05
19:00 28.05
19:10 28.05
19:20 28.05
19:30 28.05
19:40 28.05
20:00 28.05
20:10 28.05
20:20 28.05
20:30 28.05
20:40 28.05
20:50 28.05
21:10 28.05
21:20 28.05
21:30 28.05
21:40 28.05
21:50 28.05
22:10 28.05
22:20 28.05
22:30 28.05
22:40 28.05
23:00 28.05
23:10 28.05
23:20 28.05
23:30 28.05
23:50 28.05
00:10 29.05
00:20 29.05
00:30 29.05
00:40 29.05
01:00 29.05
01:10 29.05
01:20 29.05
01:30 29.05
01:40 29.05
01:50 29.05
02:00 29.05
02:10 29.05
02:20 29.05
02:30 29.05
02:40 29.05
02:50 29.05
03:10 29.05
03:20 29.05
03:30 29.05
03:40 29.05
04:00 29.05
04:10 29.05
04:20 29.05
04:30 29.05
04:40 29.05
04:50 29.05
05:00 29.05
05:10 29.05
05:20 29.05
05:30 29.05
05:40 29.05
05:50 29.05
06:00 29.05
06:10 29.05
06:20 29.05
06:30 29.05
06:40 29.05
06:50 29.05
07:00 29.05
07:10 29.05
Ветер
(напр.,м/с)
Видимость Явления Солнечная радиация
(Вт/м2)
Т
(С)
Тd
(С)
f
(%)
Тe
(С)
Тes
(С)
Комфортность P
(гПа)
Po
(гПа)
Тmin
(С)
Tmax
(С)
R
(мм)
В 1.3
{4.0}
+17.9 +15.7 87 +19 +19 1014.8 924.7 +17.9 +17.8
В 1.5
{4.4}
+17.8 +15.4 86 +19 +19 1014.7 924.6 +17.9 +17.8
В 1.4
{4.5}
+18.0 +13.8 77 +19 +19 1014.7 924.6 +18.0 +17.8
СВ 1.9
{4.5}
+17.8 +13.7 77 +18 +18 1014.8 924.7 +18.2 +17.9
В 1.0
{3.1}
+17.8 +12.9 73 +19 +19 1014.9 924.8 +17.8 +17.6
СЗ 1.2
{3.0}
+17.4 +15.1 87 +18 +18 1015.0 924.9 +18.0 +17.4
З 1.5
{3.7}
+16.3 +16.3 100 +17 +17 1015.1 925.0 +17.4 +16.3
С 1.1
{2.7}
+15.5 +15.5 100 +16 +16 1015.0 924.9 +16.3 +15.5
Ю 0.7
{1.8}
+15.5 +15.5 100 +16 +16 1015.2 925.1 +15.5 +15.3
СВ 1.0
{1.8}
+16.1 +16.1 100 +17 +17 1015.3 925.2 +16.1 +15.7
СВ 1.1
{1.7}
+16.4 +16.4 100 +17 +17 1015.3 925.2 +16.4 +16.1
В 0.4
{1.3}
+16.7 +16.7 100 +18 +18 1015.3 925.2 +16.7 +16.4
Ю 0.3
{0.6}
+16.8 +16.8 100 +19 +19 1015.5 925.3 +16.8 +16.7
З 0.6
{1.3}
+17.0 +17.0 100 +18 +18 1015.5 925.3 +17.0 +16.8
З 1.0
{1.5}
+17.4 +17.4 100 +18 +18 1015.5 925.3 +17.4 +17.0
З 1.1
{1.7}
+18.0 +18.0 100 +19 +19 1015.5 925.3 +18.0 +17.4
СЗ 1.4
{2.1}
+17.9 +17.9 100 +19 +19 1015.5 925.3 +18.1 +17.9
СЗ 1.1
{2.2}
+18.4 +18.4 100 +20 +20 1015.5 925.3 +18.4 +17.8
СЗ 0.5
{1.0}
+19.3 +17.7 91 +23 +23 комфорт 1015.3 925.2 +19.3 +18.4
СЗ 0.5
{0.9}
+19.6 +17.8 89 +24 +24 комфорт 1015.5 925.3 +19.6 +19.3
СЗ 0.4
{0.8}
+20.0 +14.8 72 +24 +24 комфорт 1015.5 925.3 +20.0 +19.6
С 0.7
{1.4}
+21.4 +14.5 65 +24 +24 комфорт 1015.3 925.2 +21.4 +20.0
В 1.0
{2.6}
+21.8 +13.7 60 +25 +25 комфорт 1015.2 925.1 +21.9 +21.4
ЮВ 1.4
{3.5}
+21.5 +11.6 53 +24 +24 комфорт 1015.2 925.1 +21.8 +21.5
ЮВ 1.7
{5.0}
+21.9 +10.9 49 +24 +24 комфорт 1015.2 925.1 +22.0 +21.5
В 1.6
{4.4}
+23.0 +11.1 47 +25 +25 комфорт 1015.2 925.1 +23.0 +21.9
В 1.4
{3.6}
+23.5 +11.8 48 +25 +25 комфорт 1015.2 925.1 +23.5 +23.0
ЮВ 1.3
{3.3}
+23.7 +11.6 47 +25 +25 комфорт 1015.2 925.1 +23.8 +23.5
ЮВ 1.2
{3.0}
+24.5 +11.0 43 +26 +26 жарко 1015.2 925.1 +24.5 +24.2
ЮВ 1.1
{2.3}
+25.0 +12.3 45 +27 +27 жарко 1015.1 925.0 +24.9 +24.5
В 0.8
{1.9}
+25.2 +9.4 37 +26 +26 жарко 1015.2 925.1 +25.6 +25.0
В 1.1
{2.3}
+25.8 +9.0 35 +26 +26 жарко 1015.1 925.0 +25.8 +25.2
В 0.9
{2.6}
+25.8 +9.8 36 +26 +26 жарко 1015.1 925.0 +26.1 +25.7
Ю 0.8
{2.3}
+25.7 +8.6 34 +26 +26 жарко 1015.2 925.1 +26.0 +25.6
Ю 1.0
{1.8}
+26.0 +9.1 34 +26 +26 жарко 1015.2 925.1 +26.1 +25.7
Ю 1.2
{2.5}
+26.0 +10.2 37 +27 +27 жарко 1015.2 925.1 +26.3 +25.9
Ю 0.8
{2.0}
+26.0 +10.4 37 +27 +27 жарко 1015.2 925.1 +26.0 +25.7
ЮЗ 1.4
{2.7}
+26.9 +9.2 33 +27 +27 жарко 1015.1 925.0 +26.3 +26.0
Ю 0.9
{2.2}
+26.8 +9.0 32 +27 +27 жарко 1015.0 924.9 +26.9 +26.7
Ю 0.8
{1.9}
+27.1 +8.4 31 +27 +27 жарко 1014.9 924.8 +27.3 +26.8
З 1.0
{2.8}
+27.5 +8.1 29 +27 +27 жарко 1014.8 924.7 +27.5 +27.1
З 1.3
{3.0}
+27.2 +8.2 30 +27 +27 жарко 1014.7 924.6 +27.5 +26.9
СВ 1.2
{2.5}
+27.6 +9.6 32 +28 +28 жарко 1014.6 924.5 +27.6 +27.1
З 1.0
{2.6}
+27.8 +8.5 30 +28 +28 жарко 1014.5 924.4 +27.7 +27.4
ЮЗ 1.2
{3.2}
+27.8 +9.5 32 +28 +28 жарко 1014.5 924.4 +28.1 +27.8
З 2.2
{4.5}
+27.3 +10.0 34 +28 +28 жарко 1014.4 924.3 +27.9 +27.3
З 2.5
{5.1}
+27.7 +8.4 30 +28 +28 жарко 1014.3 924.2 +27.6 +27.3
С 1.2
{3.3}
+28.4 +7.2 26 +28 +28 жарко 1014.2 924.1 +28.3 +27.5
СЗ 2.2
{4.1}
+27.9 +6.5 26 +27 +27 жарко 1013.9 923.9 +28.4 +27.8
СЗ 1.5
{4.5}
+28.1 +5.1 23 +27 +27 жарко 1013.9 923.9 +28.3 +27.8
СЗ 1.8
{5.6}
+28.3 +5.1 23 +27 +27 жарко 1013.8 923.8 +28.3 +27.8
З 2.1
{4.9}
+28.5 +5.8 24 +27 +27 жарко 1013.8 923.8 +28.5 +28.0
СЗ 2.2
{4.4}
+28.4 +5.1 23 +27 +27 жарко 1013.7 923.7 +28.5 +28.0
З 2.6
{4.3}
+28.5 +3.3 20 +27 +27 жарко 1013.7 923.7 +28.6 +28.4
СЗ 1.9
{4.5}
+29.1 +4.3 21 +27 +27 жарко 1013.6 923.6 +29.1 +28.7
З 2.1
{4.1}
+28.7 +5.0 22 +27 +27 жарко 1013.6 923.6 +29.3 +28.7
СЗ 2.1
{3.9}
+28.7 +3.1 19 +27 +27 жарко 1013.5 923.5 +28.9 +28.5
З 2.7
{4.9}
+28.5 +4.2 21 +27 +27 жарко 1013.4 923.4 +28.8 +28.5
З 2.2
{4.6}
+28.9 +4.2 21 +27 +27 жарко 1013.4 923.4 +28.9 +28.5
СЗ 2.5
{4.4}
+27.9 +5.9 25 +27 +27 жарко 1013.4 923.4 +28.9 +27.9
СЗ 2.4
{4.3}
+28.3 +6.1 24 +27 +27 жарко 1013.3 923.3 +28.3 +27.8
З 2.6
{5.2}
+28.6 +5.4 23 +27 +27 жарко 1013.3 923.3 +28.6 +28.3
З 2.2
{6.1}
+28.7 +7.9 27 +28 +28 жарко 1013.2 923.2 +28.8 +28.5
ЮЗ 2.0
{4.7}
+28.7 +8.1 27 +28 +28 жарко 1013.3 923.3 +29.0 +28.7
ЮЗ 2.1
{4.4}
+28.1 +9.3 31 +28 +28 жарко 1013.3 923.3 +28.1 +28.0
ЮЗ 1.6
{3.3}
+27.6 +8.5 30 +27 +27 жарко 1013.4 923.4 +28.2 +27.6
З 2.1
{4.8}
+27.7 +7.6 28 +27 +27 жарко 1013.4 923.4 +27.7 +27.5
З 2.3
{4.5}
+27.8 +8.0 29 +28 +28 жарко 1013.4 923.4 +27.8 +27.7
З 1.6
{3.4}
+27.3 +9.7 33 +28 +28 жарко 1013.4 923.4 +27.6 +27.3
З 1.7
{4.0}
+26.8 +8.7 32 +27 +27 жарко 1013.3 923.3 +27.3 +26.9
З 1.1
{2.7}
+26.8 +8.9 32 +27 +27 жарко 1013.4 923.4 +26.8 +26.7
З 1.5
{2.7}
+26.5 +10.2 36 +27 +27 жарко 1013.5 923.5 +26.9 +26.5
З 1.4
{2.9}
+26.1 +11.7 40 +27 +27 жарко 1013.5 923.5 +26.5 +26.1
З 1.4
{2.5}
+25.9 +11.8 41 +27 +27 жарко 1013.5 923.5 +26.1 +25.9
З 1.2
{2.3}
+25.7 +12.9 45 +28 +28 жарко 1013.5 923.5 +25.9 +25.7
З 1.2
{1.8}
+25.5 +10.8 40 +27 +27 жарко 1013.5 923.5 +25.7 +25.5
З 0.7
{1.5}
+25.3 +14.0 49 +28 +28 жарко 1013.6 923.6 +25.6 +25.3
З 0.7
{1.4}
+24.7 +14.0 51 +27 +27 жарко 1013.7 923.7 +25.3 +24.7
З 1.3
{2.3}
+24.5 +12.6 47 +26 +26 жарко 1013.8 923.8 +24.7 +24.5
З 1.4
{2.2}
+24.2 +12.0 46 +26 +26 жарко 1014.1 924.0 +24.5 +24.2
ЮЗ 1.2
{2.3}
+24.0 +11.9 47 +26 +26 жарко 1014.2 924.1 +24.2 +24.0
Ю 1.7
{2.7}
+23.3 +12.3 50 +26 +26 жарко 1014.3 924.2 +24.0 +23.3
Ю 2.5
{4.8}
+22.9 +11.3 48 +25 +25 комфорт 1014.5 924.4 +23.3 +22.9
Ю 1.4
{5.9}
+22.9 +6.7 35 +24 +24 комфорт 1014.4 924.3 +23.3 +22.9
Ю 1.9
{4.3}
+21.4 +9.1 45 +23 +23 комфорт 1014.6 924.5 +22.2 +21.4
Ю 1.7
{4.1}
+20.9 +9.6 48 +23 +23 комфорт 1014.7 924.6 +21.4 +20.9
Ю 1.2
{2.8}
+20.7 +10.5 52 +23 +23 комфорт 1014.9 924.8 +21.0 +20.7
З 0.8
{1.9}
+20.3 +11.1 55 +23 +23 комфорт 1015.1 925.0 +20.7 +20.4
ЮВ 1.1
{2.1}
+20.2 +10.0 52 +23 +23 комфорт 1015.2 925.1 +20.4 +20.2
В 1.1
{2.4}
+20.2 +9.9 52 +23 +23 комфорт 1015.3 925.2 +20.2 +20.1
В 0.7
{1.4}
+19.3 +13.1 67 +22 +22 комфорт 1015.5 925.3 +19.9 +19.3
ЮВ 1.2
{2.3}
+19.2 +9.9 55 +21 +21 комфорт 1015.6 925.4 +19.4 +19.1
ЮВ 1.0
{2.5}
+20.1 +9.9 52 +23 +23 комфорт 1015.6 925.4 +20.1 +19.2
ЮВ 0.8
{2.0}
+20.3 +11.3 56 +23 +23 комфорт 1015.7 925.5 +20.3 +20.1
Ю 1.3
{2.2}
+19.5 +11.1 58 +22 +22 комфорт 1015.7 925.5 +20.3 +19.5
ЮВ 0.4
{0.9}
+18.7 +11.6 63 +21 +21 комфорт 1015.9 925.7 +19.1 +18.7
ЮВ 0.5
{1.6}
+18.3 +14.5 79 +20 +20 1016.0 925.8 +18.7 +18.3
ЮВ 0.8
{1.7}
+18.0 +14.1 78 +19 +19 1016.1 925.9 +18.3 +18.0
ЮВ 1.0
{2.5}
+18.2 +12.7 70 +20 +20 1016.2 926.0 +18.2 +18.0
В 1.3
{4.2}
+19.8 +12.3 62 +22 +22 комфорт 1016.2 926.0 +20.0 +19.1
ЮВ 0.8
{1.9}
+19.5 +14.2 72 +22 +22 комфорт 1016.2 926.0 +19.8 +19.5
Ю 2.1
{6.7}
+19.9 +9.7 52 +22 +22 комфорт 1016.4 926.2 +19.9 +19.3
ЮВ 1.5
{5.3}
+19.4 +11.4 60 +21 +21 комфорт 1016.4 926.2 +19.9 +19.3
ЮВ 1.8
{3.7}
+19.3 +9.5 53 +21 +21 комфорт 1016.3 926.1 +19.3 +18.6
В 0.6
{1.5}
+19.0 +11.4 61 +21 +21 комфорт 1016.4 926.2 +19.1 +18.9
ЮВ 0.8
{2.5}
+19.1 +10.6 58 +21 +21 комфорт 1016.3 926.1 +19.1 +19.0
ЮВ 1.5
{4.9}
+19.1 +11.2 60 +21 +21 комфорт 1016.4 926.2 +19.1 +19.0
ЮВ 1.9
{5.3}
+19.0 +12.3 65 +21 +21 комфорт 1016.4 926.2 +19.1 +19.0
ЮВ 1.9
{5.0}
+18.9 +12.3 66 +20 +20 1016.4 926.2 +19.0 +18.9
ЮВ 2.0
{6.0}
+18.7 +12.1 65 +20 +20 1016.4 926.2 +18.9 +18.7
ЮВ 1.9
{5.6}
+18.8 +11.1 61 +20 +20 1016.4 926.2 +18.8 +18.7
ЮВ 1.7
{7.1}
+18.9 +10.3 57 +20 +20 1016.3 926.1 +18.9 +18.8
ЮВ 1.6
{5.0}
+19.0 +9.9 56 +20 +20 1016.3 926.1 +19.0 +18.9
ЮВ 1.7
{5.4}
+18.9 +9.3 54 +20 +20 1016.4 926.2 +19.0 +18.7
ЮВ 1.8
{4.8}
+18.9 +9.3 54 +20 +20 1016.3 926.1 +18.9 +18.5
ЮВ 2.2
{4.5}
+19.0 +10.1 56 +20 +20 1016.3 926.1 +19.0 +18.8
ЮВ 1.7
{3.9}
+18.9 +10.2 57 +20 +20 1016.2 926.0 +19.0 +18.8
ЮВ 1.3
{3.5}
+18.9 +9.7 55 +20 +20 1016.4 926.2 +18.9 +18.8
ЮВ 1.3
{3.5}
+19.0 +9.5 54 +21 +21 комфорт 1016.4 926.2 +19.0 +18.9
ЮВ 1.1
{3.1}
+18.9 +9.4 54 +21 +21 комфорт 1016.4 926.2 +19.0 +18.9
ЮВ 1.4
{3.2}
+18.4 +8.5 52 +20 +20 1016.2 926.0 +18.7 +18.4
ЮВ 1.7
{5.1}
+18.4 +8.5 52 +19 +19 1016.1 925.9 +18.5 +18.4
ЮВ 1.9
{5.4}
+18.4 +9.0 54 +19 +19 1016.2 926.0 +18.4 +18.4
ЮВ 1.9
{6.6}
+18.4 +9.0 54 +19 +19 1016.2 926.0 +18.4 +18.3
В 1.8
{6.3}
+18.0 +8.8 55 +19 +19 1016.2 926.0 +18.2 +18.0
В 1.7
{5.7}
+18.0 +8.9 55 +19 +19 1016.2 926.0 +18.1 +18.0
ЮВ 1.3
{4.7}
+18.0 +8.7 55 +19 +19 1016.2 926.0 +18.0 +18.0
В 1.3
{4.5}
+18.0 +8.5 54 +19 +19 1016.2 926.0 +18.1 +18.0
ЮВ 1.3
{3.8}
+18.2 +8.5 53 +19 +19 1016.2 926.0 +18.2 +18.0
В 1.8
{5.5}
+18.3 +8.6 53 +19 +19 1016.2 926.0 +18.3 +18.2
В 2.1
{6.1}
+18.3 +9.1 55 +19 +19 1016.3 926.1 +18.4 +18.3
ЮВ 1.8
{7.0}
+18.3 +9.1 55 +19 +19 1016.4 926.2 +18.3 +18.3
В 1.8
{6.1}
+18.2 +9.4 56 +19 +19 1016.5 926.3 +18.3 +18.2
ЮВ 1.5
{4.6}
+18.3 +9.1 55 +19 +19 1016.6 926.4 +18.3 +18.2
В 1.6
{4.6}
+18.3 +9.1 55 +19 +19 1016.6 926.4 +18.3 +18.2
В 1.8
{5.7}
+18.5 +8.9 54 +19 +19 1016.7 926.5 +18.4 +18.2
В 2.3
{5.1}
+18.8 +9.0 53 +20 +20 1016.7 926.5 +18.8 +18.5
СВ 1.8
{4.0}
+18.9 +9.3 54 +20 +20 1016.9 926.6 +18.9 +18.8
В 1.8
{4.3}
+19.0 +7.7 48 +20 +20 1016.9 926.6 +18.9 +18.7
В 1.1
{3.4}
+19.0 +8.7 51 +21 +21 комфорт 1016.9 926.6 +19.2 +19.0
В 0.9
{4.4}
+18.9 +8.8 52 +21 +21 комфорт 1017.0 926.7 +19.1 +19.0
В 0.9
{3.5}
+18.8 +9.6 55 +21 +21 комфорт 1017.0 926.7 +18.9 +18.8
В 1.2
{3.7}
+19.1 +9.0 52 +21 +21 комфорт 1017.0 926.7 +19.1 +18.8
В 1.7
{5.0}
+19.4 +9.1 51 +21 +21 комфорт 1017.0 926.7 +19.4 +19.1
Местоположение метеостанции Ханабад (Андижанская область, Узбекистан): широта 40.77 долгота 73.01 высота над уровнем моря 0 м.
В архиве по умолчанию представлена погода в Ханабаде за последние 1-2 суток. Обновление информации о фактической погоде в базе происходит ежечасно! Архивные данные за месяц целиком и за предыдущие месяцы Вы можете получить, выбрав интересующий диапазон дат из раскрывающегося списка и нажав кнопку "Ввод!".
*Определитесь, кто Вы:
Внимание! Время в таблицах - местное (без учета летнего времени). Для получения всемирного времени необходимо вычесть поправку, которая равна 5 ч.
Смотрите также архив погоды на ближайших метеорологических станциях:
Партнеры нашего сайта:      
Пояснения к столбцам:
  • Ветер - указаны скорость ветра в м/с - средняя за 10 мин, порывы в срок и между сроками (в фигурных скобках) и направление, откуда дует ветер: С - северный,
  • СВ - северо-восточный, В - восточный, ЮВ - юго-восточный, Ю - южный, ЮЗ - юго-западный, З - западный, СЗ - северо-западный.
  • Видимость - горизонтальная дальность видимости в метрах или километрах. При видимости от 1 до 10 км при отсутствии осадков обычно наблюдается дымка, при ухудшении видимости до 1 км и менее - туман. В сухую погоду видимость может ухудшаться дымом, пылью или мглою.
  • Явления - указаны атмосферные явления, наблюдавшиеся в срок или в последний час перед сроком.
  • Солнечная радиация - мощность потока солнечного излучения на поверхность земли и предметов в Вт/м2.
  • T - Температура воздуха - температура, измеренная на высоте 2 м над землей.
  • Td - Температура точки росы - температура, при понижении до которой содержащийся в воздухе водяной пар достигнет насыщения.
  • f - Относительная влажность воздуха - влажноcть воздуха, измеренная на высоте 2 м над землей.
  • Te - Эффективная температура - температура, которую ощущает одетый по сезону человек в тени. Характеристика душности погоды. При расчете учитывается влияние влажности воздуха и скорости ветра на теплоощущения человека.
  • Tes - Эффективная температура на солнце - температура, которую ощущает человек, с поправкой на солнечный нагрев. Характеристика знойности погоды. Зависит от высоты солнца над горизонтом, облачности и скорости ветра. Ночью, в пасмурную погоду, а также при ветре 12 м/с и более поправка равна нулю.
  • P - Атмосферное давление - приведенное к уровню моря атмосферное давление.
  • Po - Атмосферное давление - измеренное на уровне метеостанции атмосферное давление.
  • Tmin - Минимальная температура - минимум температуры воздуха на высоте 2 м над землей.
  • Tmax - Максимальная температура - максимум температуры воздуха на высоте 2 м над землей.
  • R - Количество осадков - Количество выпавших осадков за период времени, мм. При наведении курсора мыши на число - период времени, за который выпало указанное количество осадков.